Angel Fire, NM

9:42 PM MDT on May 26, 2018 (GMT -0600)
Angel Fire

Weather History for KAXX - August, 2013

Change the Weather History Date:

Thursday, August 29, 2013

  Actual Average (KSKX) Record (KSKX)
Temperature  
Mean Temperature 59 °F -  
Max Temperature 79 °F 78 °F 87 °F (2012)
Min Temperature 39 °F 46 °F 41 °F (2005)
Degree Days  
Heating Degree Days 6    
Growing Degree Days 9 (Base 50)    
Moisture  
Dew Point 42 °F    
Average Humidity 61    
Maximum Humidity 94    
Minimum Humidity 22    
Precipitation  
Precipitation 0.00 in - - ()
Sea Level Pressure  
Sea Level Pressure 30.47 in    
Wind  
Wind Speed 1 mph (SSW)    
Max Wind Speed 8 mph    
Max Gust Speed -    
Visibility 10 miles    
Events      
Averages and records for this station are not official NWS values.
T = Trace of Precipitation, MM = Missing Value Source: NWS Daily Summary

Daily Weather History Graph

Daily Weather History Graph

Search for Another Location

Airport or City:

Astronomy

Aug. 29, 2013 Rise Set
Actual Time 6:30 AM MDT 7:32 PM MDT
Civil Twilight 6:03 AM MDT 7:59 PM MDT
Nautical Twilight 5:32 AM MDT 8:30 PM MDT
Astronomical Twilight 4:59 AM MDT 9:03 PM MDT
Moon 12:28 AM MDT (8/29) 2:58 PM MDT (8/29)
Length of Visible Light 13h 55m
Length of Day
13h 02m
Last Quarter, 37% of the Moon is Illuminated
Aug 29
Last Quarter
Sep 5
New
Sep 12
First Quarter
Sep 19
Full
Sep 26
Last Quarter

Hourly Weather History & Observations

Time (MDT) Temp. Dew Point Humidity Pressure Visibility Wind Dir Wind Speed Gust Speed Precip Events Conditions
12:15 AM 47.8 °F 42.8 °F 83% 30.48 in 10.0 mi Calm Calm - N/A   Clear
12:35 AM 48.0 °F 43.2 °F 83% 30.48 in 10.0 mi Calm Calm - N/A   Clear
12:55 AM 46.8 °F 42.3 °F 84% 30.49 in 10.0 mi Calm Calm - N/A   Clear
1:15 AM 45.7 °F 42.3 °F 88% 30.49 in 10.0 mi Calm Calm - N/A   Clear
1:35 AM 44.2 °F 41.0 °F 88% 30.48 in 10.0 mi Calm Calm - N/A   Clear
1:55 AM 45.0 °F 41.2 °F 87% 30.48 in 10.0 mi Calm Calm - N/A   Clear
2:15 AM 44.4 °F 41.2 °F 88% 30.48 in 10.0 mi Calm Calm - N/A   Clear
2:35 AM 44.6 °F 41.7 °F 90% 30.48 in 10.0 mi Calm Calm - N/A   Clear
2:55 AM 45.1 °F 41.5 °F 87% 30.48 in 10.0 mi Calm Calm - N/A   Clear
3:15 AM 42.6 °F 39.9 °F 90% 30.48 in 10.0 mi Calm Calm - N/A   Clear
3:35 AM 43.3 °F 40.5 °F 90% 30.48 in 10.0 mi Calm Calm - N/A   Clear
3:55 AM 41.9 °F 39.0 °F 90% 30.48 in 10.0 mi Calm Calm - N/A   Clear
4:15 AM 40.8 °F 38.5 °F 91% 30.48 in 10.0 mi Calm Calm - N/A   Clear
4:35 AM 42.1 °F 40.1 °F 93% 30.48 in 10.0 mi Calm Calm - N/A   Clear
4:55 AM 41.7 °F 38.8 °F 89% 30.48 in 10.0 mi Calm Calm - N/A   Clear
5:15 AM 43.2 °F 40.3 °F 90% 30.48 in 10.0 mi Calm Calm - N/A   Clear
5:35 AM 39.0 °F 37.0 °F 93% 30.49 in 10.0 mi Calm Calm - N/A   Clear
5:55 AM 40.5 °F 37.8 °F 90% 30.49 in 10.0 mi Calm Calm - N/A   Clear
6:15 AM 39.2 °F 37.2 °F 93% 30.50 in 10.0 mi Calm Calm - N/A   Clear
6:35 AM 40.1 °F 37.6 °F 91% 30.50 in 10.0 mi Calm Calm - N/A   Clear
6:55 AM 39.6 °F 37.9 °F 94% 30.50 in 10.0 mi Calm Calm - N/A   Clear
7:15 AM 41.9 °F 39.2 °F 90% 30.51 in 10.0 mi Calm Calm - N/A   Clear
7:35 AM 45.1 °F 42.6 °F 91% 30.51 in 10.0 mi Calm Calm - N/A   Clear
7:55 AM 48.7 °F 44.6 °F 86% 30.51 in 10.0 mi Calm Calm - N/A   Clear
8:15 AM 52.2 °F 45.9 °F 79% 30.51 in 10.0 mi Calm Calm - N/A   Clear
8:35 AM 54.5 °F 46.9 °F 76% 30.51 in 10.0 mi Calm Calm - N/A   Clear
8:55 AM 57.0 °F 47.3 °F 70% 30.51 in 10.0 mi Calm Calm - N/A   Clear
9:15 AM 60.3 °F 48.7 °F 66% 30.51 in 10.0 mi Calm Calm - N/A   Clear
9:35 AM 63.9 °F 49.3 °F 59% 30.50 in 10.0 mi Calm Calm - N/A   Clear
9:55 AM 66.7 °F 49.1 °F 53% 30.50 in 10.0 mi Calm Calm - N/A   Clear
10:15 AM 69.8 °F 48.2 °F 46% 30.50 in 10.0 mi Calm Calm - N/A   Clear
10:35 AM 70.9 °F 48.7 °F 45% 30.50 in 10.0 mi Calm Calm - N/A   Clear
11:15 AM 72.7 °F 44.4 °F 36% 30.48 in 10.0 mi Calm Calm - N/A   Clear
11:55 AM 75.9 °F 43.2 °F 31% 30.48 in 10.0 mi Calm Calm - N/A   Clear
12:15 PM 76.3 °F 39.7 °F 27% 30.47 in 10.0 mi NNW 3.5 mph - N/A   Clear
12:35 PM 78.4 °F 41.5 °F 27% 30.46 in 10.0 mi SSE 6.9 mph - N/A   Clear
12:55 PM 77.9 °F 40.5 °F 26% 30.46 in 10.0 mi South 8.1 mph - N/A   Scattered Clouds
1:15 PM 77.0 °F 38.7 °F 25% 30.46 in 10.0 mi Calm Calm - N/A   Scattered Clouds
1:35 PM 78.1 °F 39.6 °F 25% 30.46 in 10.0 mi SW 3.5 mph - N/A   Mostly Cloudy
1:55 PM 77.0 °F 37.0 °F 24% 30.45 in 10.0 mi Calm Calm - N/A   Overcast
2:15 PM 77.4 °F 39.9 °F 26% 30.45 in 10.0 mi NNE 4.6 mph - N/A   Overcast
2:35 PM 79.5 °F 41.0 °F 25% 30.45 in 10.0 mi North 3.5 mph - N/A   Scattered Clouds
2:55 PM 78.8 °F 36.9 °F 22% 30.44 in 10.0 mi ESE 3.5 mph - N/A   Scattered Clouds
3:15 PM 78.1 °F 36.3 °F 22% 30.43 in 10.0 mi SE 3.5 mph - N/A   Mostly Cloudy
3:35 PM 77.9 °F 36.3 °F 22% 30.42 in 10.0 mi East 3.5 mph - N/A   Overcast
3:55 PM 77.2 °F 36.5 °F 23% 30.42 in 10.0 mi SE 5.8 mph - N/A   Overcast
4:15 PM 76.5 °F 37.0 °F 24% 30.42 in 10.0 mi ESE 8.1 mph - N/A   Overcast
4:35 PM 76.3 °F 42.3 °F 30% 30.43 in 10.0 mi Calm Calm - N/A   Overcast
4:55 PM 75.2 °F 43.9 °F 33% 30.43 in 10.0 mi WNW 5.8 mph - N/A   Overcast
5:15 PM 73.6 °F 45.9 °F 37% 30.43 in 10.0 mi WNW 5.8 mph - N/A   Mostly Cloudy
5:35 PM 72.0 °F 47.5 °F 42% 30.43 in 10.0 mi West 5.8 mph - N/A   Scattered Clouds
5:55 PM 72.1 °F 45.1 °F 38% 30.43 in 10.0 mi Calm Calm - N/A   Clear
6:15 PM 69.3 °F 49.6 °F 50% 30.44 in 10.0 mi SSW 3.5 mph - N/A   Clear
6:35 PM 67.6 °F 45.9 °F 46% 30.44 in 10.0 mi Calm Calm - N/A   Scattered Clouds
6:55 PM 67.6 °F 46.9 °F 47% 30.44 in 10.0 mi West 4.6 mph - N/A   Mostly Cloudy
7:15 PM 65.7 °F 47.1 °F 51% 30.45 in 10.0 mi Calm Calm - N/A   Overcast
7:35 PM 66.4 °F 46.9 °F 50% 30.46 in 10.0 mi Calm Calm - N/A   Overcast
7:55 PM 65.7 °F 45.5 °F 48% 30.46 in 10.0 mi WSW 4.6 mph - N/A   Overcast
8:15 PM 64.0 °F 45.5 °F 51% 30.46 in 10.0 mi South 4.6 mph - N/A   Overcast
8:35 PM 63.1 °F 43.7 °F 49% 30.47 in 10.0 mi Calm Calm - N/A   Overcast
9:15 PM 58.1 °F 43.5 °F 58% 30.48 in 10.0 mi Calm Calm - N/A   Clear
9:35 PM 57.0 °F 42.6 °F 59% 30.49 in 10.0 mi Calm Calm - N/A   Clear
9:55 PM 55.4 °F 42.1 °F 61% 30.49 in 10.0 mi Calm Calm - N/A   Clear
10:15 PM 53.6 °F 41.9 °F 65% 30.49 in 10.0 mi Calm Calm - N/A   Clear
10:35 PM 52.9 °F 41.9 °F 66% 30.49 in 10.0 mi South 3.5 mph - N/A   Clear
10:55 PM 50.7 °F 42.4 °F 73% 30.50 in 10.0 mi Calm Calm - N/A   Clear
11:15 PM 52.2 °F 42.8 °F 70% 30.50 in 10.0 mi Calm Calm - N/A   Clear
11:35 PM 49.3 °F 42.4 °F 77% 30.50 in 10.0 mi Calm Calm - N/A   Clear
11:55 PM 53.2 °F 42.8 °F 68% 30.50 in 10.0 mi Calm Calm - N/A   Clear